Orbital Elements at Epoch 2459000.5 (2020-May-31.0) TDB
Reference: JPL 18 (heliocentric ecliptic J2000)
Element | Value | Uncertainty (1-sigma) | Units |
e | .09967068395495039 | 6.1763e-08 | |
a | 2.300102317054964 | 6.7553e-09 | au |
q | 2.07084954594773 | 1.4206e-07 | au |
i | 3.560806947789283 | 6.5866e-06 | deg |
node | 179.8281888018456 | 5.2794e-05 | deg |
peri | 215.3109654284526 | 5.6594e-05 | deg |
M | 305.9911189516243 | 1.9252e-05 | deg |
tp | 2459191.653317204023 (2020-Dec-08.15331720) | 6.8116e-05 | TDB |
period | 1274.145897075902 3.49 | 5.6131e-06 1.537e-08 | d yr |
n | .2825422118661459 | 1.2447e-09 | deg/d |
Q | 2.529355088162198 | 7.4286e-09 | au |
|
| | Orbit Determination Parameters
Additional Information
|